Location: Belloy
(55.7522°N, 118.2333°W)
Time: 23:39:36
(UTC+00:00)

Envisat - Pass Details

Date: 05 December 2021
Orbit: 764 x 766 km, 98.2° (Epoch: 27 January)

Event Time Altitude Azimuth Distance (km) Brightness Sun altitude
Rises 13:12:10 0° 15° (NNE) 3,249 6.4 -22.8°
Reaches altitude 10° 13:14:29 10° 16° (NNE) 2,318 5.6 -22.4°
Maximum altitude 13:19:37 86° 106° (ESE) 777 3.0 -21.7°
Drops below altitude 10° 13:24:43 10° 196° (SSW) 2,301 5.4 -21.0°
Sets 13:27:00 0° 196° (SSW) 3,223 6.2 -20.7°
